Terminal Aerodrome Forecast
Issued by NWS Chicago, IL

Home | Current Version | Previous Version | Graphics & Text | Print | Product List | Glossary On
Versions: 1 2 3 4 5 6 7 8 9 10 11 12 13 14 15 16 17 18 19 20 21 22 23 24 25 26 27 28 29 30 31 32 33 34 35 36 37 38
000
FTUS43 KLOT 260900 AAA
TAFRFD
TAF AMD
KRFD 260902Z 2609/2706 35005KT P6SM SCT200
     FM261200 VRB04KT P6SM OVC090
     FM261800 17005KT P6SM OVC020 PROB30 2619/2624 2SM -SN OVC015
     FM270000 17005KT P6SM SCT009 OVC012=

USA.gov is the U.S. government's official web portal to all federal, state and local government web resources and services.